Tracking 19254 objects as of 19-Oct-2018
HD Live streaming from Space Station
objects crossing your sky now

INSAT 3A

Track INSAT 3A now!
INSAT 3A is classified as:


NORAD ID: 27714
Int'l Code: 2003-013A
Perigee: 35,868.2 km
Apogee: 35,977.5 km
Inclination: 2.2 °
Period: 1,442.7 minutes
Semi major axis: 42293 km
RCS: 22.0529 m2 (large)
Launch date: April 9, 2003
Source: India (IND)
Launch site: FRENCH GUIANA (FRGUI)

12 C-band, 6 extended C-band, 6 Ku-band for voice, video and data transmission to West Asia, East Asia, India; augment present INSAT capacity for communication and meteorological services.
aabbcc
Your satellite tracking list
Your tracking list is empty




NASA's NSSDC Master Catalog

Two Line Element Set (TLE):
1 27714U 03013A   18292.38197655 -.00000198  00000-0  00000+0 0  9992
2 27714   2.2012  85.2778 0012916 232.4851 191.4768  0.99812991 56860
Source of the keplerian elements: AFSPC